www.pogodaiklimat.ru

Погода и климат >> Архив погоды >> Греция >> Souda


ПОГОДА в Souda

  • Прогноз погоды в Souda
  • Монитор погоды в Souda
  • Климат города

АРХИВ ПОГОДЫ в Souda

Время (UTC), дата Ветер
(напр.,м/с)
 
Видим.   Явления Облачность Т
(С)
Тd
(С)
f
(%)
Тe
(С)
Тes
(С)
Комфортность P
(гПа)
Po
(гПа)
Тmin
(С)
Tmax
(С)
R
(мм)
R24
(мм)
S
(см)
03 13.07 З 2
{5}
10 км ясно +22.6 +17.1 71 +27 +27 душно 1010.9 993.5
06 13.07 С 3
{6}
10 км ясно +29.2 +19.5 56 +35 +40 очень
душно
1010.9 994.0 +22.6
09 13.07 С 5
{8}
10 км 1/1 600 м
[Cu hum]
+31.4 +19.3 49 +37 +46 очень
душно
1011.4 994.6
12 13.07 СЗ 4
{9}
10 км ясно +33.0 +21.3 50 +41 +53 опасность
перегрева
1011.0 994.3
15 13.07 СЗ 4
{9}
10 км ясно +31.8 +21.9 56 +40 +44 очень
душно
1010.3 993.5
18 13.07 СЗ 4
{6}
10 км ясно +27.0 +21.3 71 +34 +34 очень
душно
1010.2 993.3 +33.0
21 13.07 СЗ 3
{6}
10 км ясно +25.2 +22.2 83 +33 +33 очень
душно
1010.6 993.5
00 14.07 штиль 0
{4}
10 км ясно +24.0 +21.3 85 +30 +30 очень
душно
1010.3 993.1
03 14.07 штиль 0
{3}
10 км ясно +23.4 +18.0 72 +29 +29 душно 1009.8 992.6
06 14.07 СЗ 3
{4}
10 км ясно +28.8 +20.4 60 +35 +41 очень
душно
1009.9 993.0 +23.4
09 14.07 С 4
{9}
10 км 1/1 600 м
[Cu hum]
+31.0 +20.9 55 +38 +49 очень
душно
1010.3 993.5
12 14.07 С 6
{10}
10 км ясно +32.6 +19.7 47 +39 +47 очень
душно
1010.2 993.4
15 14.07 С 6
{12}
10 км ясно +31.0 +18.8 48 +36 +38 очень
душно
1009.4 992.7
18 14.07 З 3
{5}
10 км 3/0
[Ac trans]
+27.0 +19.3 63 +33 +33 очень
душно
1010.0 993.1 +32.6
21 14.07 СЗ 3
{4}
10 км 1/1 600 м
[Cu hum]
+25.2 +20.0 73 +31 +31 очень
душно
1010.6 993.5
00 15.07 СЗ 3
{6}
10 км 1/1 600 м
[Cu hum]
+23.8 +20.8 83 +30 +30 очень
душно
1010.3 993.1
03 15.07 СЗ 2
{5}
10 км 1/1 600 м
[Cu hum]
+23.4 +21.0 86 +31 +31 очень
душно
1009.9 992.7
06 15.07 СЗ 3
{7}
10 км 1/1 600 м
[Cu hum]
+28.0 +19.8 61 +34 +38 очень
душно
1009.9 993.0 +23.4
09 15.07 С 5
{10}
10 км ясно +30.0 +18.6 50 +35 +44 очень
душно
1010.3 993.5
12 15.07 С 4
{12}
10 км ясно +31.0 +16.5 42 +34 +46 душно 1010.6 993.8
15 15.07 С 3
{10}
10 км ясно +31.2 +18.6 47 +36 +40 очень
душно
1010.0 993.3
18 15.07 штиль 0
{7}
10 км ясно +27.8 +17.4 53 +32 +32 душно 1009.9 993.0 +31.2
21 15.07 штиль 0
{2}
10 км ясно +24.8 +20.9 79 +31 +31 очень
душно
1010.6 993.4
00 16.07 штиль 0
{4}
10 км ясно +23.0 +21.5 91 +31 +31 очень
душно
1010.5 993.3
03 16.07 штиль 0
{3}
10 км ясно +22.4 +20.2 87 +29 +29 очень
душно
1009.9 992.6
06 16.07 штиль 0
{3}
10 км ясно +27.6 +17.2 53 +32 +40 очень
душно
1009.9 993.0 +22.4
09 16.07 СВ 4
{7}
10 км ясно +31.4 +17.4 43 +35 +48 очень
душно
1010.3 993.5
12 16.07 СВ 3
{8}
10 км ясно +33.6 +17.2 38 +37 +52 опасность
солнечного
удара
1010.7 994.0
15 16.07 ЮЗ 2
{7}
10 км ясно +32.2 +17.7 42 +36 +41 очень
душно
1010.3 993.5
18 16.07 З 4
{6}
10 км ясно +27.2 +20.6 67 +34 +34 очень
душно
1010.6 993.6 +33.8
21 16.07 штиль 0
{5}
10 км 1/1 600 м
[Cu hum]
+25.4 +19.6 70 +31 +31 очень
душно
1010.7 993.6
00 17.07 штиль 0
{2}
10 км 1/1 600 м
[Cu hum]
+24.4 +17.7 66 +28 +28 душно 1010.5 993.3
03 17.07 штиль 0
{2}
10 км ясно +23.6 +16.8 66 +27 +27 жарко 1009.4 992.2
06 17.07 СЗ 2
{3}
10 км ясно +30.4 +19.8 53 +37 +42 очень
душно
1009.4 992.6 +23.6
09 17.07 З 3
{7}
10 км ясно +35.0 +23.7 52 +46 +61 опасность
перегрева
1009.4 992.9
12 17.07 З 9
{12}
10 км ясно +33.6 +19.9 45 +40 +41 очень
душно
1009.3 992.7
15 17.07 З 8
{13}
10 км ясно +34.4 +18.6 39 +39 +40 очень
душно
1007.9 991.4
18 17.07 З 7
{14}
10 км ясно +29.2 +18.0 51 +34 +34 очень
душно
1007.4 990.6 +36.0
21 17.07 З 10
{17}
10 км ясно +25.6 +20.1 72 +32 +32 очень
душно
1007.6 990.6
00 18.07 З 7
{16}
10 км ясно +25.4 +19.2 69 +31 +31 очень
душно
1005.9 989.0
03 18.07 З 8
{14}
10 км ясно +24.6 +20.0 76 +30 +30 очень
душно
1005.5 988.5
06 18.07 З 9
{16}
10 км 1/1 600 м
[Cu hum]
+26.8 +21.4 72 +34 +35 очень
душно
1005.9 989.0 +24.6
09 18.07 СЗ 8
{15}
10 км 3/3 600 м
[Cu hum]
+30.0 +21.1 59 +38 +40 очень
душно
1006.5 989.6
12 18.07 СЗ 6
{10}
10 км 1/1 600 м
[Cu hum]
+32.0 +23.1 59 +42 +49 опасность
перегрева
1006.5 989.8
15 18.07 СЗ 5
{9}
10 км 1/1 600 м
[Cu hum]
+31.8 +22.9 59 +42 +44 опасность
перегрева
1006.5 989.8
18 18.07 СЗ 5
{7}
10 км ясно +26.0 +23.1 84 +35 +35 очень
душно
1006.7 989.8 +32.2
21 18.07 С 3
{7}
10 км ясно +24.4 +21.4 83 +31 +31 очень
душно
1007.9 990.7
00 19.07 штиль 0
{5}
10 км ясно +23.6 +21.5 88 +30 +30 очень
душно
1007.8 990.6
03 19.07 штиль 0
{2}
10 км ясно +23.0 +20.9 88 +30 +30 очень
душно
1007.4 990.3
06 19.07 штиль 0
{1}
10 км 1/0
[Ac trans]
+28.0 +21.1 66 +35 +43 очень
душно
1007.6 990.7 +22.8
09 19.07 СВ 5
{7}
10 км 1/1 600 м
[Cu hum]
+32.2 +17.3 41 +36 +46 очень
душно
1007.9 991.3
12 19.07 СВ 5
{9}
10 км 3/3 600 м
[Cu hum]
+32.2 +17.3 41 +36 +42 очень
душно
1007.9 991.3
15 19.07 ЮВ 2
{7}
10 км 1/1 600 м
[Cu hum]
+31.8 +16.7 40 +35 +39 очень
душно
1007.6 991.0
18 19.07 СЗ 2
{6}
10 км ясно +27.0 +22.6 77 +36 +36 очень
душно
1007.1 990.2 +32.8
21 19.07 СЗ 3
{5}
10 км ясно +24.6 +19.7 74 +30 +30 очень
душно
1007.9 990.7
00 20.07 СЗ 2
{6}
10 км ясно +23.8 +21.1 85 +30 +30 очень
душно
1007.4 990.3

 

Местоположение метеостанции Souda (Греция): широта 35.48 долгота 24.12 высота над уровнем моря 151 м.

В архиве по умолчанию представлена погода в Souda за последнюю неделю. Архивные данные за месяц целиком и за предыдущие месяцы, начиная с января 2011 года, Вы можете получить, выбрав интересующий диапазон дат из раскрывающегося списка и нажав кнопку "Ввод!".


*Определитесь, кто Вы:
робот инопланетянин человек

Внимание! Время в таблицах - всемирное. Для получения местного времени необходимо прибавить поправку, которая в Souda равна 2 ч.

Смотрите также архив погоды в соседних городах и на ближайших метеорологических станциях:

Погода в Heraklion (Греция) (98 км)
Погода в Kasteli (Греция) (114 км)
Погода в Kythira (Греция) (133 км)
Погода в Milos (Греция) (141 км)
Погода в Sitia (Греция) (182 км)
Погода в Naxos (Греция) (213 км)
Погода в Kalamata (Греция) (258 км)
Погода в Methoni (Греция) (264 км)
Погода в Athens (Греция) (271 км)
Погода в El Venizelos (Греция) (272 км)

Пояснения к столбцам:

Ветер - указаны скорость ветра в м/с - средняя за 10 мин, порывы в срок и между сроками (в фигурных скобках) и направление, откуда дует ветер: С - северный, СВ - северо-восточный, В - восточный, ЮВ - юго-восточный, Ю - южный, ЮЗ - юго-западный, З - западный, СЗ - северо-западный.
Видимость - горизонтальная дальность видимости в метрах или километрах. При видимости от 1 до 10 км при отсутствии осадков обычно наблюдается дымка, при ухудшении видимости до 1 км и менее - туман. В сухую погоду видимость может ухудшаться дымом, пылью или мглою.
Явления - указаны атмосферные явления, наблюдавшиеся в срок или в последний час перед сроком; фигурными скобками обозначены явления, наблюдавшиеся между сроками (за 1-3 часа до срока); квадратными скобками обозначены град или гололедные отложения с указанием их диаметра в мм.
Облачность - указаны через наклонную черту общая и нижняя облачность в баллах и высота нижней границы облаков в метрах; квадратными скобками обозначены формы облаков: Ci - перистые, Cs - перисто-слоистые, Cc - перисто-кучевые, Ac - высококучевые, As - высокослоистые, Sc - слоисто-кучевые, Ns - слоисто-дождевые, Cu - кучевые, Cb - кучево-дождевые. Подробнее классификацию облаков см. в Атласе облаков (PDF).
T - Температура воздуха - температура, измеренная на высоте 2 м над землей.
Td - Температура точки росы - температура, при понижении до которой содержащийся в воздухе водяной пар достигнет насыщения.
f - Относительная влажность воздуха - влажноcть воздуха, измеренная на высоте 2 м над землей.
Te - Эффективная температура - температура, которую ощущает одетый по сезону человек в тени. Характеристика душности погоды. При расчете учитывается влияние влажности воздуха и скорости ветра на теплоощущения человека.
Tes - Эффективная температура на солнце - температура, которую ощущает человек, с поправкой на солнечный нагрев. Характеристика знойности погоды. Зависит от высоты солнца над горизонтом, облачности и скорости ветра. Ночью, в пасмурную погоду, а также при ветре 12 м/с и более поправка равна нулю.
P - Атмосферное давление - приведенное к уровню моря атмосферное давление.
Po - Атмосферное давление - измеренное на уровне метеостанции атмосферное давление.
Tmin - Минимальная температура - минимум температуры воздуха на высоте 2 м над землей.
Tmax - Максимальная температура - максимум температуры воздуха на высоте 2 м над землей.
R - Количество осадков - Количество выпавших осадков за период времени, мм. При наведении курсора мыши на число - период времени, за который выпало указанное количество осадков.
R24 - Количество осадков - Количество выпавших осадков за 24 часа, мм.
S - Снежный покров - Высота снежного покрова, см. При наведении курсора мыши на число - состояние снежного покрова и степень покрытия местности в баллах.